Time,TemperatureF,DewpointF,PressureIn,WindDirection,WindDirectionDegrees,WindSpeedMPH,WindSpeedGustMPH,Humidity,HourlyPrecipIn,Conditions,Clouds,dailyrainin,SoftwareType,DateUTC
2013-02-09 00:05:00,17.7,15.0,29.90,NW,321,2.0,-999.0,90,-99.99,,,0.00,weatherlink.com 1.10,2013-02-09 05:05:00,
2013-02-09 00:20:00,17.5,15.0,29.90,North,2,5.0,-999.0,90,-99.99,,,0.00,weatherlink.com 1.10,2013-02-09 05:20:00,
2013-02-09 00:35:00,17.4,15.0,29.90,NNE,20,4.0,-999.0,90,-99.99,,,0.00,weatherlink.com 1.10,2013-02-09 05:35:00,
2013-02-09 00:50:00,17.2,15.0,29.91,North,10,5.0,-999.0,90,-99.99,,,0.00,weatherlink.com 1.10,2013-02-09 05:50:00,
2013-02-09 01:05:00,17.0,15.0,29.90,NNW,332,8.0,-999.0,90,-99.99,,,0.00,weatherlink.com 1.10,2013-02-09 06:05:00,
2013-02-09 01:20:00,16.8,14.0,29.91,NNW,342,5.0,-999.0,90,-99.99,,,0.00,weatherlink.com 1.10,2013-02-09 06:20:00,
2013-02-09 01:35:00,16.8,14.0,29.93,NNE,20,4.0,-999.0,90,-99.99,,,0.00,weatherlink.com 1.10,2013-02-09 06:35:00,
2013-02-09 01:50:00,16.8,14.0,29.92,NNW,339,9.0,-999.0,90,-99.99,,,0.00,weatherlink.com 1.10,2013-02-09 06:50:00,
2013-02-09 02:05:00,16.7,14.0,29.91,NW,313,6.0,-999.0,90,-99.99,,,0.00,weatherlink.com 1.10,2013-02-09 07:05:00,
2013-02-09 02:20:00,16.6,14.0,29.90,NW,322,10.0,-999.0,90,-99.99,,,0.00,weatherlink.com 1.10,2013-02-09 07:20:00,
2013-02-09 02:35:00,16.3,14.0,29.89,NW,321,12.0,-999.0,90,-99.99,,,0.00,weatherlink.com 1.10,2013-02-09 07:35:00,
2013-02-09 02:50:00,15.9,13.0,29.92,North,350,17.0,-999.0,89,-99.99,,,0.00,weatherlink.com 1.10,2013-02-09 07:50:00,
2013-02-09 03:06:00,15.2,13.0,29.91,NNW,345,10.0,-999.0,89,-99.99,,,0.00,weatherlink.com 1.10,2013-02-09 08:06:00,
2013-02-09 03:20:00,14.8,12.0,29.91,NNW,343,13.0,-999.0,89,-99.99,,,0.00,weatherlink.com 1.10,2013-02-09 08:20:00,
2013-02-09 03:35:00,14.6,12.0,29.91,NE,43,11.0,-999.0,89,-99.99,,,0.00,weatherlink.com 1.10,2013-02-09 08:35:00,
2013-02-09 03:50:00,14.4,12.0,29.92,WNW,302,6.0,-999.0,89,-99.99,,,0.00,weatherlink.com 1.10,2013-02-09 08:50:00,
2013-02-09 04:06:00,14.1,12.0,29.92,North,349,5.0,-999.0,89,-99.99,,,0.00,weatherlink.com 1.10,2013-02-09 09:06:00,
2013-02-09 04:20:00,13.7,11.0,29.92,North,353,14.0,-999.0,89,-99.99,,,0.00,weatherlink.com 1.10,2013-02-09 09:20:00,
2013-02-09 04:36:00,13.5,11.0,29.92,North,10,10.0,-999.0,89,-99.99,,,0.00,weatherlink.com 1.10,2013-02-09 09:36:00,
2013-02-09 04:50:00,13.3,11.0,29.92,NNE,24,5.0,-999.0,89,-99.99,,,0.00,weatherlink.com 1.10,2013-02-09 09:50:00,
2013-02-09 05:05:00,12.8,10.0,29.93,NE,39,7.0,-999.0,88,-99.99,,,0.00,weatherlink.com 1.10,2013-02-09 10:05:00,
2013-02-09 05:20:00,12.2,9.0,29.93,NNE,15,9.0,-999.0,88,-99.99,,,0.00,weatherlink.com 1.10,2013-02-09 10:20:00,
2013-02-09 05:36:00,11.9,9.0,29.93,North,4,11.0,-999.0,88,-99.99,,,0.00,weatherlink.com 1.10,2013-02-09 10:36:00,
2013-02-09 05:51:00,11.7,9.0,29.94,NNW,334,14.0,-999.0,88,-99.99,,,0.00,weatherlink.com 1.10,2013-02-09 10:51:00,
2013-02-09 06:06:00,11.3,9.0,29.93,NW,318,11.0,-999.0,88,-99.99,,,0.00,weatherlink.com 1.10,2013-02-09 11:06:00,
2013-02-09 06:21:00,10.9,8.0,29.94,NW,318,16.0,-999.0,87,-99.99,,,0.00,weatherlink.com 1.10,2013-02-09 11:21:00,
2013-02-09 06:36:00,10.7,8.0,29.95,North,355,20.0,-999.0,87,-99.99,,,0.00,weatherlink.com 1.10,2013-02-09 11:36:00,
2013-02-09 06:51:00,10.5,7.0,29.96,NNW,328,12.0,-999.0,87,-99.99,,,0.00,weatherlink.com 1.10,2013-02-09 11:51:00,
2013-02-09 07:06:00,10.3,7.0,29.97,North,351,11.0,-999.0,87,-99.99,,,0.00,weatherlink.com 1.10,2013-02-09 12:06:00,
2013-02-09 07:21:00,10.1,7.0,29.98,WNW,303,13.0,-999.0,87,-99.99,,,0.00,weatherlink.com 1.10,2013-02-09 12:21:00,
2013-02-09 07:36:00,9.9,7.0,29.99,North,10,18.0,-999.0,87,-99.99,,,0.00,weatherlink.com 1.10,2013-02-09 12:36:00,
2013-02-09 07:51:00,9.6,7.0,30.00,NW,305,17.0,-999.0,87,-99.99,,,0.00,weatherlink.com 1.10,2013-02-09 12:51:00,
2013-02-09 08:07:00,9.4,6.0,30.01,North,10,12.0,-999.0,86,-99.99,,,0.00,weatherlink.com 1.10,2013-02-09 13:07:00,
2013-02-09 08:21:00,9.2,6.0,30.02,North,349,9.0,-999.0,86,-99.99,,,0.00,weatherlink.com 1.10,2013-02-09 13:21:00,
2013-02-09 08:36:00,9.4,6.0,30.02,NNW,336,18.0,-999.0,87,-99.99,,,0.00,weatherlink.com 1.10,2013-02-09 13:36:00,
2013-02-09 08:52:00,9.7,7.0,30.03,NNW,334,15.0,-999.0,87,-99.99,,,0.00,weatherlink.com 1.10,2013-02-09 13:52:00,
2013-02-09 09:07:00,9.9,7.0,30.04,North,10,12.0,-999.0,87,-99.99,,,0.00,weatherlink.com 1.10,2013-02-09 14:07:00,
2013-02-09 09:22:00,10.0,7.0,30.05,NNW,341,13.0,-999.0,87,-99.99,,,0.00,weatherlink.com 1.10,2013-02-09 14:22:00,
2013-02-09 09:37:00,9.9,7.0,30.05,NNE,15,21.0,-999.0,86,-99.99,,,0.00,weatherlink.com 1.10,2013-02-09 14:37:00,
2013-02-09 09:52:00,9.9,6.0,30.06,NNE,15,11.0,-999.0,85,-99.99,,,0.01,weatherlink.com 1.10,2013-02-09 14:52:00,
2013-02-09 10:07:00,10.0,6.0,30.06,NNE,33,12.0,-999.0,85,-99.99,,,0.01,weatherlink.com 1.10,2013-02-09 15:07:00,
2013-02-09 10:22:00,10.7,7.0,30.07,North,10,16.0,-999.0,84,-99.99,,,0.01,weatherlink.com 1.10,2013-02-09 15:22:00,
2013-02-09 10:37:00,10.8,7.0,30.07,NNW,340,26.0,-999.0,83,-99.99,,,0.01,weatherlink.com 1.10,2013-02-09 15:37:00,
2013-02-09 10:52:00,11.0,7.0,30.08,NNW,328,10.0,-999.0,82,-99.99,,,0.01,weatherlink.com 1.10,2013-02-09 15:52:00,
2013-02-09 11:07:00,11.7,7.0,30.08,NW,324,15.0,-999.0,80,-99.99,,,0.01,weatherlink.com 1.10,2013-02-09 16:07:00,
2013-02-09 11:22:00,12.2,7.0,30.08,NE,47,11.0,-999.0,79,-99.99,,,0.01,weatherlink.com 1.10,2013-02-09 16:22:00,
2013-02-09 11:37:00,12.7,7.0,30.08,NE,45,28.0,-999.0,77,-99.99,,,0.01,weatherlink.com 1.10,2013-02-09 16:37:00,
2013-02-09 11:52:00,13.0,7.0,30.07,NNE,15,9.0,-999.0,75,-99.99,,,0.01,weatherlink.com 1.10,2013-02-09 16:52:00,
2013-02-09 12:08:00,13.7,7.0,30.08,North,349,13.0,-999.0,73,-99.99,,,0.01,weatherlink.com 1.10,2013-02-09 17:08:00,
2013-02-09 12:23:00,13.9,7.0,30.08,NNW,340,5.0,-999.0,73,-99.99,,,0.01,weatherlink.com 1.10,2013-02-09 17:23:00,
2013-02-09 12:38:00,14.7,7.0,30.07,NW,304,12.0,-999.0,71,-99.99,,,0.01,weatherlink.com 1.10,2013-02-09 17:38:00,
2013-02-09 12:53:00,15.3,7.0,30.07,NNW,332,17.0,-999.0,70,-99.99,,,0.01,weatherlink.com 1.10,2013-02-09 17:53:00,
2013-02-09 13:08:00,15.7,7.0,30.07,NW,315,14.0,-999.0,68,-99.99,,,0.01,weatherlink.com 1.10,2013-02-09 18:08:00,
2013-02-09 13:23:00,15.9,7.0,30.08,NNW,344,4.0,-999.0,69,-99.99,,,0.01,weatherlink.com 1.10,2013-02-09 18:23:00,
2013-02-09 13:38:00,15.7,7.0,30.09,North,351,4.0,-999.0,69,-99.99,,,0.01,weatherlink.com 1.10,2013-02-09 18:38:00,
2013-02-09 13:53:00,16.2,7.0,30.10,West,267,16.0,-999.0,66,-99.99,,,0.01,weatherlink.com 1.10,2013-02-09 18:53:00,
2013-02-09 14:08:00,16.6,7.0,30.10,NE,39,7.0,-999.0,67,-99.99,,,0.01,weatherlink.com 1.10,2013-02-09 19:08:00,
2013-02-09 14:23:00,17.1,8.0,30.11,NNW,329,4.0,-999.0,67,-99.99,,,0.01,weatherlink.com 1.10,2013-02-09 19:23:00,
2013-02-09 14:38:00,16.6,7.0,30.12,NW,313,11.0,-999.0,65,-99.99,,,0.01,weatherlink.com 1.10,2013-02-09 19:38:00,
2013-02-09 14:53:00,16.0,6.0,30.13,NNW,344,6.0,-999.0,66,-99.99,,,0.01,weatherlink.com 1.10,2013-02-09 19:53:00,
2013-02-09 15:08:00,15.8,6.0,30.14,NNE,15,13.0,-999.0,66,-99.99,,,0.01,weatherlink.com 1.10,2013-02-09 20:08:00,
2013-02-09 15:24:00,15.5,6.0,30.15,WNW,302,8.0,-999.0,65,-99.99,,,0.01,weatherlink.com 1.10,2013-02-09 20:24:00,
2013-02-09 15:39:00,15.4,5.0,30.16,NE,43,9.0,-999.0,64,-99.99,,,0.01,weatherlink.com 1.10,2013-02-09 20:39:00,
2013-02-09 15:54:00,15.3,5.0,30.17,East,94,3.0,-999.0,64,-99.99,,,0.01,weatherlink.com 1.10,2013-02-09 20:54:00,
2013-02-09 16:09:00,15.1,5.0,30.18,NNE,25,13.0,-999.0,63,-99.99,,,0.01,weatherlink.com 1.10,2013-02-09 21:09:00,
2013-02-09 16:24:00,14.8,4.0,30.18,NNE,24,10.0,-999.0,63,-99.99,,,0.01,weatherlink.com 1.10,2013-02-09 21:24:00,
2013-02-09 16:39:00,14.5,4.0,30.19,ENE,73,7.0,-999.0,62,-99.99,,,0.01,weatherlink.com 1.10,2013-02-09 21:39:00,
2013-02-09 16:54:00,14.2,3.0,30.20,NNE,15,8.0,-999.0,62,-99.99,,,0.01,weatherlink.com 1.10,2013-02-09 21:54:00,
2013-02-09 17:09:00,13.9,3.0,30.21,NW,315,6.0,-999.0,62,-99.99,,,0.01,weatherlink.com 1.10,2013-02-09 22:09:00,
2013-02-09 17:24:00,13.6,3.0,30.22,North,2,11.0,-999.0,62,-99.99,,,0.01,weatherlink.com 1.10,2013-02-09 22:24:00,
2013-02-09 17:39:00,13.3,2.0,30.23,North,357,5.0,-999.0,62,-99.99,,,0.01,weatherlink.com 1.10,2013-02-09 22:39:00,
2013-02-09 17:54:00,12.8,1.0,30.24,NW,322,4.0,-999.0,60,-99.99,,,0.01,weatherlink.com 1.10,2013-02-09 22:54:00,
2013-02-09 18:09:00,12.5,1.0,30.25,NNW,340,3.0,-999.0,59,-99.99,,,0.01,weatherlink.com 1.10,2013-02-09 23:09:00,
2013-02-09 18:24:00,12.1,0.0,30.26,NNW,340,2.0,-999.0,59,-99.99,,,0.01,weatherlink.com 1.10,2013-02-09 23:24:00,
2013-02-09 18:39:00,11.8,0.0,30.27,NNW,348,9.0,-999.0,59,-99.99,,,0.01,weatherlink.com 1.10,2013-02-09 23:39:00,
2013-02-09 18:54:00,11.5,0.0,30.28,North,10,5.0,-999.0,59,-99.99,,,0.01,weatherlink.com 1.10,2013-02-09 23:54:00,
2013-02-09 19:10:00,11.2,-1.0,30.29,NNW,341,5.0,-999.0,59,-99.99,,,0.01,weatherlink.com 1.10,2013-02-10 00:10:00,
2013-02-09 19:25:00,11.2,-1.0,30.30,North,10,6.0,-999.0,59,-99.99,,,0.01,weatherlink.com 1.10,2013-02-10 00:25:00,
2013-02-09 19:40:00,10.9,-1.0,30.31,NE,42,3.0,-999.0,60,-99.99,,,0.01,weatherlink.com 1.10,2013-02-10 00:40:00,
2013-02-09 19:55:00,10.6,-1.0,30.31,North,4,4.0,-999.0,60,-99.99,,,0.01,weatherlink.com 1.10,2013-02-10 00:55:00,
2013-02-09 20:10:00,10.2,-1.0,30.32,NNW,346,0.0,-999.0,61,-99.99,,,0.01,weatherlink.com 1.10,2013-02-10 01:10:00,
2013-02-09 20:25:00,9.9,-1.0,30.32,ENE,59,2.0,-999.0,62,-99.99,,,0.01,weatherlink.com 1.10,2013-02-10 01:25:00,
2013-02-09 20:40:00,9.9,-1.0,30.33,WNW,301,0.0,-999.0,62,-99.99,,,0.01,weatherlink.com 1.10,2013-02-10 01:40:00,
2013-02-09 20:55:00,9.8,-1.0,30.33,NW,325,5.0,-999.0,62,-99.99,,,0.01,weatherlink.com 1.10,2013-02-10 01:55:00,
2013-02-09 21:10:00,9.9,-1.0,30.33,NE,49,1.0,-999.0,61,-99.99,,,0.01,weatherlink.com 1.10,2013-02-10 02:10:00,
2013-02-09 21:25:00,9.6,-1.0,30.33,NNW,344,1.0,-999.0,62,-99.99,,,0.01,weatherlink.com 1.10,2013-02-10 02:25:00,
2013-02-09 21:40:00,9.6,-1.0,30.33,North,5,1.0,-999.0,62,-99.99,,,0.01,weatherlink.com 1.10,2013-02-10 02:40:00,
2013-02-09 21:55:00,8.9,-2.0,30.33,North,10,1.0,-999.0,62,-99.99,,,0.01,weatherlink.com 1.10,2013-02-10 02:55:00,
2013-02-09 22:10:00,8.1,-2.0,30.34,South,180,0.0,-999.0,65,-99.99,,,0.01,weatherlink.com 1.10,2013-02-10 03:10:00,
2013-02-09 22:26:00,8.2,-2.0,30.34,ESE,116,1.0,-999.0,64,-99.99,,,0.01,weatherlink.com 1.10,2013-02-10 03:26:00,
2013-02-09 22:41:00,7.3,-1.0,30.35,South,175,1.0,-999.0,68,-99.99,,,0.01,weatherlink.com 1.10,2013-02-10 03:41:00,
2013-02-09 22:56:00,7.5,-1.0,30.35,ESE,106,0.0,-999.0,67,-99.99,,,0.01,weatherlink.com 1.10,2013-02-10 03:56:00,
2013-02-09 23:11:00,7.6,-1.0,30.35,NE,51,2.0,-999.0,67,-99.99,,,0.01,weatherlink.com 1.10,2013-02-10 04:11:00,
2013-02-09 23:26:00,8.0,-2.0,30.36,NNW,348,0.0,-999.0,65,-99.99,,,0.01,weatherlink.com 1.10,2013-02-10 04:26:00,
2013-02-09 23:41:00,7.4,-2.0,30.36,NNW,348,0.0,-999.0,66,-99.99,,,0.01,weatherlink.com 1.10,2013-02-10 04:41:00,
2013-02-09 23:56:00,7.4,-2.0,30.37,NNW,348,0.0,-999.0,66,-99.99,,,0.01,weatherlink.com 1.10,2013-02-10 04:56:00,